| time (UTC) | temp C | wind direction | speed KPH | gust KPH | rain 1hr cm | rain 24hr cm | rain mn cm | humidity % | barometer mb |
| 20260905094234 | 25 | 170 | 8.0 | 14.5 | 0.00 | 0.00 | 0.00 | 79 | 1013.2 |
| 20260905093744 | 25 | 173 | 8.0 | 14.5 | 0.00 | 0.00 | 0.00 | 79 | 1013.1 |
| 20260905093234 | 25 | 155 | 9.7 | 14.5 | 0.00 | 0.00 | 0.00 | 79 | 1013.0 |
| 20260905093059 | 25 | 168 | 8.0 | 14.5 | 0.00 | 0.00 | 0.00 | 79 | 1010.1 |
| 20260905092801 | 25 | 167 | 9.7 | 14.5 | 0.00 | 0.00 | 0.00 | 79 | 1013.0 |
| 20260905092225 | 25 | 190 | 9.7 | 12.9 | 0.00 | 0.00 | 0.00 | 79 | 1013.0 |
| 20260905091756 | 25 | 153 | 8.0 | 12.9 | 0.00 | 0.00 | 0.00 | 79 | 1013.1 |
| 20260905091510 | 25 | 145 | 8.0 | 12.9 | 0.00 | 0.00 | 0.00 | 79 | 1010.2 |
| 20260905091247 | 25 | 155 | 8.0 | 12.9 | 0.00 | 0.00 | 0.00 | 79 | 1013.2 |
| 20260905090727 | 25 | 154 | 8.0 | 14.5 | 0.00 | 0.00 | 0.00 | 79 | 1013.2 |
| 20260905090240 | 25 | 170 | 8.0 | 11.3 | 0.00 | 0.00 | 0.00 | 79 | 1013.2 |
| 20260905090017 | 25 | 157 | 6.4 | 11.3 | 0.00 | 0.00 | 0.00 | 79 | 1010.3 |
| 20260905085723 | 25 | 168 | 6.4 | 11.3 | 0.00 | 0.00 | 0.00 | 79 | 1013.3 |
| 20260905085232 | 25 | 166 | 8.0 | 11.3 | 0.00 | 0.00 | 0.00 | 79 | 1013.3 |
| 20260905084743 | 25 | 163 | 8.0 | 11.3 | 0.00 | 0.00 | 0.00 | 79 | 1013.3 |
| 20260905084520 | 25 | 173 | 8.0 | 11.3 | 0.00 | 0.00 | 0.00 | 79 | 1010.4 |
| 20260905084227 | 25 | 160 | 8.0 | 12.9 | 0.00 | 0.00 | 0.00 | 79 | 1013.3 |
| 20260905083737 | 25 | 169 | 8.0 | 12.9 | 0.00 | 0.00 | 0.00 | 79 | 1013.4 |
| 20260905083249 | 25 | 176 | 9.7 | 12.9 | 0.00 | 0.00 | 0.00 | 79 | 1013.5 |
| 20260905083024 | 25 | 171 | 8.0 | 11.3 | 0.00 | 0.00 | 0.00 | 79 | 1010.6 |
| 20260905082731 | 25 | 173 | 8.0 | 12.9 | 0.00 | 0.00 | 0.00 | 79 | 1013.5 |
| 20260905082244 | 25 | 150 | 8.0 | 12.9 | 0.00 | 0.00 | 0.00 | 79 | 1013.5 |
| 20260905081725 | 25 | 160 | 8.0 | 11.3 | 0.00 | 0.00 | 0.00 | 79 | 1013.6 |
| 20260905081518 | 25 | 165 | 8.0 | 11.3 | 0.00 | 0.00 | 0.00 | 79 | 1010.6 |
| 20260905081235 | 25 | 154 | 8.0 | 11.3 | 0.00 | 0.00 | 0.00 | 79 | 1013.6 |
| 20260905080805 | 25 | 163 | 6.4 | 11.3 | 0.00 | 0.00 | 0.00 | 79 | 1013.7 |
| 20260905080226 | 25 | 159 | 8.0 | 11.3 | 0.00 | 0.00 | 0.00 | 78 | 1013.7 |
| 20260905075757 | 25 | 168 | 6.4 | 9.7 | 0.00 | 0.00 | 0.00 | 78 | 1013.8 |
| 20260905075247 | 25 | 168 | 6.4 | 9.7 | 0.00 | 0.00 | 0.00 | 78 | 1013.8 |
| 20260905074731 | 25 | 168 | 4.8 | 8.0 | 0.00 | 0.00 | 0.00 | 78 | 1013.9 |
| 20260905074544 | 25 | 168 | 4.8 | 8.0 | 0.00 | 0.00 | 0.00 | 78 | 1010.9 |
| 20260905074301 | 25 | 169 | 4.8 | 8.0 | 0.00 | 0.00 | 0.00 | 78 | 1013.9 |
| 20260905073750 | 25 | 168 | 3.2 | 6.4 | 0.00 | 0.00 | 0.00 | 78 | 1013.9 |
| 20260905073232 | 26 | 168 | 3.2 | 6.4 | 0.00 | 0.00 | 0.00 | 77 | 1013.9 |
| 20260905073027 | 25 | 168 | 1.6 | 4.8 | 0.00 | 0.00 | 0.00 | 77 | 1010.9 |
| 20260905072723 | 26 | 168 | 3.2 | 4.8 | 0.00 | 0.00 | 0.00 | 77 | 1013.9 |
| 20260905072254 | 26 | 168 | 3.2 | 9.7 | 0.00 | 0.00 | 0.00 | 77 | 1013.9 |
| 20260905071745 | 26 | 168 | 4.8 | 9.7 | 0.00 | 0.00 | 0.00 | 77 | 1013.9 |
| 20260905071538 | 25 | 168 | 4.8 | 9.7 | 0.00 | 0.00 | 0.00 | 77 | 1010.9 |
| 20260905071229 | 26 | 196 | 4.8 | 8.0 | 0.00 | 0.00 | 0.00 | 77 | 1013.9 |
| 20260905070734 | 26 | 195 | 4.8 | 8.0 | 0.00 | 0.00 | 0.00 | 77 | 1013.9 |
| 20260905070246 | 26 | 182 | 4.8 | 8.0 | 0.00 | 0.00 | 0.00 | 77 | 1013.9 |
| 20260905070045 | 26 | 199 | 4.8 | 8.0 | 0.00 | 0.00 | 0.00 | 77 | 1010.9 |
| 20260905065730 | 26 | 199 | 4.8 | 8.0 | 0.00 | 0.00 | 0.00 | 77 | 1014.0 |
| 20260905065242 | 26 | 192 | 6.4 | 9.7 | 0.00 | 0.00 | 0.00 | 77 | 1014.1 |
| 20260905064727 | 26 | 200 | 6.4 | 9.7 | 0.00 | 0.00 | 0.00 | 77 | 1014.2 |
| 20260905064548 | 26 | 200 | 6.4 | 9.7 | 0.00 | 0.00 | 0.00 | 77 | 1011.1 |
| 20260905064240 | 26 | 198 | 6.4 | 11.3 | 0.00 | 0.00 | 0.00 | 77 | 1014.1 |
| 20260905063723 | 26 | 177 | 8.0 | 11.3 | 0.00 | 0.00 | 0.00 | 77 | 1014.1 |
| 20260905063235 | 26 | 167 | 6.4 | 9.7 | 0.00 | 0.00 | 0.00 | 77 | 1014.1 |
| 20260905063058 | 26 | 169 | 4.8 | 8.0 | 0.00 | 0.00 | 0.00 | 77 | 1011.0 |
| 20260905062743 | 26 | 165 | 6.4 | 8.0 | 0.00 | 0.00 | 0.00 | 77 | 1014.1 |
| 20260905062226 | 26 | 164 | 6.4 | 8.0 | 0.00 | 0.00 | 0.00 | 77 | 1014.1 |
| 20260905061729 | 26 | 164 | 3.2 | 6.4 | 0.00 | 0.00 | 0.00 | 76 | 1014.1 |
| 20260905061524 | 26 | 178 | 4.8 | 6.4 | 0.00 | 0.00 | 0.00 | 76 | 1011.0 |
| 20260905061240 | 27 | 194 | 4.8 | 6.4 | 0.00 | 0.00 | 0.00 | 76 | 1014.1 |
| 20260905060810 | 27 | 172 | 4.8 | 8.0 | 0.00 | 0.00 | 0.00 | 76 | 1014.1 |
| 20260905060233 | 27 | 173 | 4.8 | 8.0 | 0.00 | 0.00 | 0.00 | 76 | 1014.2 |
| 20260905060055 | 26 | 196 | 4.8 | 8.0 | 0.00 | 0.00 | 0.00 | 76 | 1011.0 |
| 20260905055739 | 27 | 196 | 4.8 | 8.0 | 0.00 | 0.00 | 0.00 | 76 | 1014.1 |
| 20260905055223 | 27 | 196 | 6.4 | 8.0 | 0.00 | 0.00 | 0.00 | 75 | 1014.1 |
| 20260905054734 | 27 | 196 | 4.8 | 8.0 | 0.00 | 0.00 | 0.00 | 75 | 1014.1 |
| 20260905054600 | 27 | 196 | 4.8 | 8.0 | 0.00 | 0.00 | 0.00 | 75 | 1011.0 |
| 20260905054247 | 27 | 196 | 4.8 | 8.0 | 0.00 | 0.00 | 0.00 | 75 | 1014.1 |
| 20260905053727 | 27 | 178 | 6.4 | 8.0 | 0.00 | 0.00 | 0.00 | 75 | 1014.1 |
| 20260905053237 | 27 | 184 | 4.8 | 8.0 | 0.00 | 0.00 | 0.00 | 75 | 1014.0 |
| 20260905053005 | 27 | 178 | 4.8 | 8.0 | 0.00 | 0.00 | 0.00 | 75 | 1011.0 |
| 20260905052748 | 27 | 174 | 6.4 | 8.0 | 0.00 | 0.00 | 0.00 | 74 | 1014.0 |
| 20260905052237 | 27 | 173 | 6.4 | 8.0 | 0.00 | 0.00 | 0.00 | 74 | 1013.9 |
| 20260905051745 | 27 | 166 | 6.4 | 9.7 | 0.00 | 0.00 | 0.00 | 74 | 1013.9 |
| 20260905051546 | 27 | 163 | 4.8 | 9.7 | 0.00 | 0.00 | 0.00 | 74 | 1010.8 |
| 20260905051228 | 27 | 171 | 6.4 | 9.7 | 0.00 | 0.00 | 0.00 | 74 | 1013.9 |
| 20260905050736 | 27 | 168 | 6.4 | 12.9 | 0.00 | 0.00 | 0.00 | 74 | 1013.9 |
| 20260905050248 | 27 | 175 | 8.0 | 14.5 | 0.00 | 0.00 | 0.00 | 74 | 1013.9 |
| 20260905050053 | 27 | 157 | 6.4 | 11.3 | 0.00 | 0.00 | 0.00 | 74 | 1010.9 |
| 20260905045752 | 28 | 163 | 8.0 | 16.1 | 0.00 | 0.00 | 0.00 | 74 | 1014.0 |
| 20260905045241 | 28 | 163 | 9.7 | 16.1 | 0.00 | 0.00 | 0.00 | 74 | 1013.9 |
| 20260905044724 | 28 | 176 | 9.7 | 11.3 | 0.00 | 0.00 | 0.00 | 74 | 1013.9 |
| 20260905044538 | 27 | 162 | 8.0 | 12.9 | 0.00 | 0.00 | 0.00 | 74 | 1010.8 |
| 20260905044233 | 28 | 165 | 8.0 | 11.3 | 0.00 | 0.00 | 0.00 | 74 | 1013.8 |
| 20260905043741 | 28 | 163 | 6.4 | 11.3 | 0.00 | 0.00 | 0.00 | 74 | 1013.8 |
| 20260905043223 | 28 | 150 | 6.4 | 11.3 | 0.00 | 0.00 | 0.00 | 73 | 1013.7 |
| 20260905043041 | 28 | 148 | 6.4 | 11.3 | 0.00 | 0.00 | 0.00 | 73 | 1010.6 |
| 20260905042736 | 28 | 169 | 8.0 | 11.3 | 0.00 | 0.00 | 0.00 | 73 | 1013.7 |
| 20260905042248 | 28 | 165 | 4.8 | 8.0 | 0.00 | 0.00 | 0.00 | 73 | 1013.6 |
| 20260905041732 | 28 | 162 | 6.4 | 8.0 | 0.00 | 0.00 | 0.00 | 73 | 1013.6 |
| 20260905041513 | 28 | 169 | 6.4 | 9.7 | 0.00 | 0.00 | 0.00 | 73 | 1010.5 |
| 20260905041305 | 28 | 167 | 6.4 | 9.7 | 0.00 | 0.00 | 0.00 | 73 | 1013.6 |
| 20260905040722 | 28 | 190 | 4.8 | 12.9 | 0.00 | 0.00 | 0.00 | 73 | 1013.6 |
| 20260905040235 | 28 | 159 | 6.4 | 12.9 | 0.00 | 0.00 | 0.00 | 73 | 1013.6 |
| 20260905040053 | 28 | 153 | 6.4 | 12.9 | 0.00 | 0.00 | 0.00 | 73 | 1010.5 |
| 20260905035747 | 28 | 160 | 6.4 | 11.3 | 0.00 | 0.00 | 0.00 | 73 | 1013.5 |
| 20260905035228 | 28 | 194 | 4.8 | 11.3 | 0.00 | 0.00 | 0.00 | 73 | 1013.5 |
| 20260905034801 | 28 | 171 | 4.8 | 9.7 | 0.00 | 0.00 | 0.00 | 73 | 1013.5 |
| 20260905034539 | 28 | 171 | 6.4 | 9.7 | 0.00 | 0.00 | 0.00 | 73 | 1010.4 |
| 20260905034254 | 28 | 165 | 6.4 | 9.7 | 0.00 | 0.00 | 0.00 | 73 | 1013.5 |
| 20260905033743 | 29 | 198 | 4.8 | 9.7 | 0.00 | 0.00 | 0.00 | 73 | 1013.4 |
| 20260905033224 | 29 | 198 | 6.4 | 9.7 | 0.00 | 0.00 | 0.00 | 73 | 1013.4 |
| 20260905033021 | 28 | 198 | 4.8 | 9.7 | 0.00 | 0.00 | 0.00 | 73 | 1010.3 |
| 20260905032737 | 29 | 198 | 6.4 | 9.7 | 0.00 | 0.00 | 0.00 | 73 | 1013.4 |
| 20260905032222 | 29 | 182 | 8.0 | 11.3 | 0.00 | 0.00 | 0.00 | 72 | 1013.3 |
| 20260905031736 | 29 | 167 | 8.0 | 11.3 | 0.00 | 0.00 | 0.00 | 72 | 1013.2 |
| 20260905031533 | 29 | 200 | 8.0 | 11.3 | 0.00 | 0.00 | 0.00 | 72 | 1010.1 |
| 20260905031250 | 30 | 171 | 8.0 | 11.3 | 0.00 | 0.00 | 0.00 | 72 | 1013.2 |
| 20260905030733 | 30 | 186 | 8.0 | 12.9 | 0.00 | 0.00 | 0.00 | 72 | 1013.1 |
| 20260905030245 | 30 | 174 | 9.7 | 12.9 | 0.00 | 0.00 | 0.00 | 72 | 1013.1 |
| 20260905030035 | 30 | 177 | 8.0 | 12.9 | 0.00 | 0.00 | 0.00 | 72 | 1010.0 |
| 20260905025729 | 30 | 177 | 9.7 | 14.5 | 0.00 | 0.00 | 0.00 | 72 | 1013.1 |
| 20260905025258 | 30 | 196 | 8.0 | 12.9 | 0.00 | 0.00 | 0.00 | 72 | 1013.1 |
| 20260905024809 | 30 | 169 | 8.0 | 9.7 | 0.00 | 0.00 | 0.00 | 71 | 1013.1 |
| 20260905024549 | 30 | 167 | 6.4 | 11.3 | 0.00 | 0.00 | 0.00 | 71 | 1010.0 |
| 20260905024234 | 30 | 167 | 8.0 | 8.0 | 0.00 | 0.00 | 0.00 | 71 | 1013.2 |
| 20260905023743 | 30 | 197 | 4.8 | 9.7 | 0.00 | 0.00 | 0.00 | 70 | 1013.1 |
| 20260905023254 | 31 | 149 | 6.4 | 9.7 | 0.00 | 0.00 | 0.00 | 70 | 1013.1 |
| 20260905023015 | 30 | 186 | 6.4 | 9.7 | 0.00 | 0.00 | 0.00 | 70 | 1010.0 |
| 20260905022745 | 31 | 163 | 4.8 | 8.0 | 0.00 | 0.00 | 0.00 | 69 | 1013.0 |
| 20260905022225 | 31 | 163 | 6.4 | 8.0 | 0.00 | 0.00 | 0.00 | 69 | 1013.0 |
| 20260905021735 | 31 | 163 | 4.8 | 9.7 | 0.00 | 0.00 | 0.00 | 69 | 1013.0 |
| 20260905021519 | 31 | 163 | 4.8 | 11.3 | 0.00 | 0.00 | 0.00 | 68 | 1009.9 |
| 20260905021249 | 31 | 163 | 6.4 | 11.3 | 0.00 | 0.00 | 0.00 | 68 | 1012.9 |
| 20260905020731 | 31 | 159 | 6.4 | 11.3 | 0.00 | 0.00 | 0.00 | 68 | 1012.9 |
| 20260905020243 | 31 | 163 | 6.4 | 11.3 | 0.00 | 0.00 | 0.00 | 67 | 1012.8 |
| 20260905020048 | 31 | 164 | 6.4 | 9.7 | 0.00 | 0.00 | 0.00 | 67 | 1009.7 |
| 20260905015725 | 32 | 162 | 8.0 | 11.3 | 0.00 | 0.00 | 0.00 | 67 | 1012.9 |
| 20260905015238 | 32 | 155 | 8.0 | 11.3 | 0.00 | 0.00 | 0.00 | 66 | 1012.8 |
| 20260905014806 | 32 | 198 | 6.4 | 11.3 | 0.00 | 0.00 | 0.00 | 66 | 1012.7 |
| 20260905014513 | 32 | 167 | 6.4 | 9.7 | 0.00 | 0.00 | 0.00 | 65 | 1009.6 |
| 20260905014229 | 32 | 165 | 6.4 | 9.7 | 0.00 | 0.00 | 0.00 | 65 | 1012.7 |
| 20260905013741 | 32 | 158 | 4.8 | 9.7 | 0.00 | 0.00 | 0.00 | 65 | 1012.6 |
| 20260905013223 | 32 | 155 | 6.4 | 11.3 | 0.00 | 0.00 | 0.00 | 64 | 1012.5 |
| 20260905013010 | 32 | 163 | 6.4 | 12.9 | 0.00 | 0.00 | 0.00 | 64 | 1009.3 |
| 20260905012755 | 33 | 146 | 8.0 | 12.9 | 0.00 | 0.00 | 0.00 | 63 | 1012.4 |
| 20260905012248 | 33 | 161 | 8.0 | 12.9 | 0.00 | 0.00 | 0.00 | 63 | 1012.4 |
| 20260905011730 | 33 | 142 | 6.4 | 12.9 | 0.00 | 0.00 | 0.00 | 63 | 1012.4 |
| 20260905011556 | 33 | 150 | 6.4 | 12.9 | 0.00 | 0.00 | 0.00 | 63 | 1009.2 |
| 20260905011225 | 33 | 148 | 6.4 | 11.3 | 0.00 | 0.00 | 0.00 | 62 | 1012.4 |
| 20260905010732 | 33 | 141 | 8.0 | 11.3 | 0.00 | 0.00 | 0.00 | 62 | 1012.4 |
| 20260905010245 | 33 | 137 | 4.8 | 11.3 | 0.00 | 0.00 | 0.00 | 60 | 1012.3 |
| 20260905010024 | 33 | 137 | 6.4 | 11.3 | 0.00 | 0.00 | 0.00 | 60 | 1009.2 |
| 20260905005735 | 34 | 139 | 6.4 | 11.3 | 0.00 | 0.00 | 0.00 | 60 | 1012.3 |
| 20260905005247 | 34 | 200 | 3.2 | 4.8 | 0.00 | 0.00 | 0.00 | 59 | 1012.3 |
| 20260905004732 | 34 | 200 | 1.6 | 3.2 | 0.00 | 0.00 | 0.00 | 59 | 1012.2 |
| 20260905004543 | 34 | 200 | 1.6 | 3.2 | 0.00 | 0.00 | 0.00 | 58 | 1009.2 |
| 20260905004247 | 35 | 200 | 1.6 | 4.8 | 0.00 | 0.00 | 0.00 | 58 | 1012.3 |
| 20260905003737 | 35 | 200 | 1.6 | 6.4 | 0.00 | 0.00 | 0.00 | 58 | 1012.2 |
| 20260905003306 | 35 | 200 | 4.8 | 6.4 | 0.00 | 0.00 | 0.00 | 58 | 1012.2 |
| 20260905003052 | 34 | 200 | 3.2 | 6.4 | 0.00 | 0.00 | 0.00 | 58 | 1009.0 |
| 20260905002728 | 35 | 200 | 3.2 | 4.8 | 0.00 | 0.00 | 0.00 | 58 | 1012.2 |
| 20260905002242 | 35 | 200 | 3.2 | 4.8 | 0.00 | 0.00 | 0.00 | 58 | 1012.1 |
| 20260905001752 | 35 | 200 | 0.0 | 3.2 | 0.00 | 0.00 | 0.00 | 59 | 1012.2 |
| 20260905001544 | 35 | 200 | 0.0 | 3.2 | 0.00 | 0.00 | 0.00 | 59 | 1009.1 |
| 20260905001244 | 35 | 200 | 1.6 | 4.8 | 0.00 | 0.00 | 0.00 | 59 | 1012.2 |
| 20260905000726 | 35 | 200 | 1.6 | 4.8 | 0.00 | 0.00 | 0.00 | 60 | 1012.1 |
| 20260905000241 | 35 | 200 | 3.2 | 3.2 | 0.00 | 0.00 | 0.00 | 59 | 1012.2 |
| 20260905000050 | 35 | 200 | 1.6 | 4.8 | 0.00 | 0.00 | 0.00 | 59 | 1009.1 |
| 20260904235747 | 35 | 200 | 1.6 | 4.8 | 0.00 | 0.00 | 0.00 | 58 | 1012.2 |
| 20260904235231 | 35 | 200 | 1.6 | 4.8 | 0.00 | 0.00 | 0.00 | 58 | 1012.2 |
| 20260904234744 | 35 | 200 | 1.6 | 6.4 | 0.00 | 0.00 | 0.00 | 57 | 1012.2 |
| 20260904234552 | 35 | 200 | 1.6 | 6.4 | 0.00 | 0.00 | 0.00 | 57 | 1009.1 |
| 20260904234229 | 36 | 200 | 3.2 | 6.4 | 0.00 | 0.00 | 0.00 | 56 | 1012.2 |
| 20260904233741 | 36 | 200 | 3.2 | 6.4 | 0.00 | 0.00 | 0.00 | 57 | 1012.2 |
| 20260904233224 | 36 | 200 | 1.6 | 8.0 | 0.00 | 0.00 | 0.00 | 56 | 1012.2 |
| 20260904233100 | 36 | 200 | 1.6 | 9.7 | 0.00 | 0.00 | 0.00 | 56 | 1009.1 |
| 20260904233002 | 36 | 200 | 3.2 | 9.7 | 0.00 | 0.00 | 0.00 | 56 | 1009.1 |
| 20260904232735 | 36 | 200 | 4.8 | 9.7 | 0.00 | 0.00 | 0.00 | 56 | 1012.2 |
| 20260904232247 | 36 | 200 | 6.4 | 11.3 | 0.00 | 0.00 | 0.00 | 56 | 1012.3 |
| 20260904231726 | 36 | 196 | 6.4 | 12.9 | 0.00 | 0.00 | 0.00 | 56 | 1012.3 |
| 20260904231510 | 36 | 204 | 8.0 | 12.9 | 0.00 | 0.00 | 0.00 | 56 | 1009.2 |
| 20260904231300 | 36 | 207 | 8.0 | 12.9 | 0.00 | 0.00 | 0.00 | 56 | 1012.4 |
| 20260904230723 | 36 | 175 | 8.0 | 11.3 | 0.00 | 0.00 | 0.00 | 57 | 1012.4 |
| 20260904230235 | 36 | 200 | 6.4 | 11.3 | 0.00 | 0.00 | 0.00 | 56 | 1012.3 |
| 20260904230054 | 36 | 199 | 6.4 | 11.3 | 0.00 | 0.00 | 0.00 | 57 | 1009.2 |
| 20260904225747 | 36 | 198 | 4.8 | 6.4 | 0.00 | 0.00 | 0.00 | 56 | 1012.3 |
| 20260904225230 | 36 | 199 | 3.2 | 6.4 | 0.00 | 0.00 | 0.00 | 55 | 1012.4 |
| 20260904224742 | 36 | 199 | 3.2 | 8.0 | 0.00 | 0.00 | 0.00 | 54 | 1012.3 |
| 20260904224555 | 36 | 199 | 1.6 | 8.0 | 0.00 | 0.00 | 0.00 | 55 | 1009.1 |
| 20260904224228 | 36 | 199 | 3.2 | 9.7 | 0.00 | 0.00 | 0.00 | 56 | 1012.2 |
| 20260904223734 | 36 | 199 | 4.8 | 11.3 | 0.00 | 0.00 | 0.00 | 55 | 1012.3 |
| 20260904223249 | 37 | 199 | 6.4 | 11.3 | 0.00 | 0.00 | 0.00 | 54 | 1012.3 |
| 20260904223020 | 36 | 209 | 6.4 | 11.3 | 0.00 | 0.00 | 0.00 | 54 | 1009.2 |
| 20260904222732 | 37 | 184 | 6.4 | 16.1 | 0.00 | 0.00 | 0.00 | 54 | 1012.3 |
| 20260904222245 | 37 | 202 | 8.0 | 17.7 | 0.00 | 0.00 | 0.00 | 54 | 1012.4 |
| 20260904221727 | 37 | 165 | 8.0 | 19.3 | 0.00 | 0.00 | 0.00 | 54 | 1012.3 |
| 20260904221524 | 36 | 213 | 6.4 | 14.5 | 0.00 | 0.00 | 0.00 | 53 | 1009.2 |
| 20260904221242 | 37 | 223 | 11.3 | 14.5 | 0.00 | 0.00 | 0.00 | 52 | 1012.3 |
| 20260904220722 | 37 | 204 | 8.0 | 17.7 | 0.00 | 0.00 | 0.00 | 51 | 1012.3 |
| 20260904220234 | 37 | 171 | 12.9 | 17.7 | 0.00 | 0.00 | 0.00 | 51 | 1012.3 |
| 20260904220032 | 37 | 175 | 12.9 | 17.7 | 0.00 | 0.00 | 0.00 | 51 | 1009.0 |
| 20260904215742 | 37 | 174 | 12.9 | 17.7 | 0.00 | 0.00 | 0.00 | 51 | 1012.2 |
| 20260904215226 | 37 | 200 | 11.3 | 19.3 | 0.00 | 0.00 | 0.00 | 53 | 1012.2 |
| 20260904214738 | 37 | 184 | 14.5 | 19.3 | 0.00 | 0.00 | 0.00 | 51 | 1012.2 |
| 20260904214535 | 37 | 206 | 11.3 | 19.3 | 0.00 | 0.00 | 0.00 | 51 | 1009.0 |
| 20260904214223 | 37 | 204 | 12.9 | 19.3 | 0.00 | 0.00 | 0.00 | 51 | 1012.2 |
| 20260904213735 | 37 | 199 | 12.9 | 19.3 | 0.00 | 0.00 | 0.00 | 53 | 1012.2 |
| 20260904213247 | 37 | 211 | 9.7 | 25.7 | 0.00 | 0.00 | 0.00 | 53 | 1012.2 |
| 20260904213044 | 37 | 202 | 12.9 | 25.7 | 0.00 | 0.00 | 0.00 | 52 | 1009.0 |
| 20260904212729 | 37 | 170 | 12.9 | 25.7 | 0.00 | 0.00 | 0.00 | 52 | 1012.2 |
| 20260904212241 | 37 | 176 | 12.9 | 16.1 | 0.00 | 0.00 | 0.00 | 54 | 1012.2 |
| 20260904211751 | 37 | 209 | 9.7 | 19.3 | 0.00 | 0.00 | 0.00 | 54 | 1012.2 |
| 20260904211531 | 37 | 211 | 11.3 | 19.3 | 0.00 | 0.00 | 0.00 | 54 | 1009.1 |
| 20260904211244 | 37 | 196 | 11.3 | 19.3 | 0.00 | 0.00 | 0.00 | 52 | 1012.3 |
| 20260904210728 | 37 | 219 | 8.0 | 16.1 | 0.00 | 0.00 | 0.00 | 52 | 1012.3 |
| 20260904210238 | 37 | 153 | 11.3 | 16.1 | 0.00 | 0.00 | 0.00 | 53 | 1012.3 |
| 20260904210046 | 37 | 166 | 11.3 | 16.1 | 0.00 | 0.00 | 0.00 | 53 | 1009.2 |
| 20260904205750 | 37 | 206 | 9.7 | 17.7 | 0.00 | 0.00 | 0.00 | 52 | 1012.3 |
| 20260904205241 | 37 | 202 | 11.3 | 19.3 | 0.00 | 0.00 | 0.00 | 51 | 1012.3 |
| 20260904204726 | 37 | 228 | 9.7 | 19.3 | 0.00 | 0.00 | 0.00 | 53 | 1012.3 |
| 20260904204521 | 37 | 202 | 11.3 | 20.9 | 0.00 | 0.00 | 0.00 | 50 | 1009.2 |
| 20260904204236 | 37 | 192 | 16.1 | 20.9 | 0.00 | 0.00 | 0.00 | 50 | 1012.3 |
| 20260904203746 | 37 | 204 | 11.3 | 22.5 | 0.00 | 0.00 | 0.00 | 52 | 1012.3 |
| 20260904203230 | 37 | 202 | 12.9 | 19.3 | 0.00 | 0.00 | 0.00 | 50 | 1012.4 |
| 20260904203027 | 37 | 193 | 11.3 | 19.3 | 0.00 | 0.00 | 0.00 | 51 | 1009.3 |
| 20260904202743 | 37 | 188 | 14.5 | 17.7 | 0.00 | 0.00 | 0.00 | 53 | 1012.5 |
| 20260904202227 | 37 | 213 | 9.7 | 17.7 | 0.00 | 0.00 | 0.00 | 51 | 1012.5 |
| 20260904201738 | 37 | 166 | 9.7 | 17.7 | 0.00 | 0.00 | 0.00 | 51 | 1012.5 |
| 20260904201521 | 37 | 202 | 14.5 | 19.3 | 0.00 | 0.00 | 0.00 | 51 | 1009.4 |
| 20260904201251 | 37 | 165 | 12.9 | 19.3 | 0.00 | 0.00 | 0.00 | 52 | 1012.5 |
| 20260904200731 | 37 | 198 | 11.3 | 17.7 | 0.00 | 0.00 | 0.00 | 52 | 1012.6 |
| 20260904200300 | 37 | 215 | 11.3 | 19.3 | 0.00 | 0.00 | 0.00 | 51 | 1012.6 |
| 20260904200007 | 37 | 200 | 12.9 | 19.3 | 0.00 | 0.00 | 0.00 | 52 | 1009.5 |
| 20260904195722 | 37 | 160 | 8.0 | 14.5 | 0.00 | 0.00 | 0.00 | 52 | 1012.6 |
| 20260904195232 | 37 | 202 | 9.7 | 22.5 | 0.00 | 0.00 | 0.00 | 52 | 1012.6 |
| 20260904194746 | 37 | 154 | 14.5 | 22.5 | 0.00 | 0.00 | 0.00 | 54 | 1012.7 |
| 20260904194514 | 37 | 205 | 9.7 | 16.1 | 0.00 | 0.00 | 0.00 | 53 | 1009.6 |
| 20260904194229 | 37 | 216 | 11.3 | 17.7 | 0.00 | 0.00 | 0.00 | 54 | 1012.7 |
| 20260904193739 | 37 | 205 | 6.4 | 17.7 | 0.00 | 0.00 | 0.00 | 52 | 1012.7 |
| 20260904193229 | 37 | 207 | 12.9 | 17.7 | 0.00 | 0.00 | 0.00 | 53 | 1012.7 |
| 20260904193054 | 37 | 221 | 11.3 | 19.3 | 0.00 | 0.00 | 0.00 | 52 | 1009.6 |
| 20260904192756 | 37 | 199 | 9.7 | 19.3 | 0.00 | 0.00 | 0.00 | 56 | 1012.7 |
| 20260904192246 | 37 | 174 | 12.9 | 19.3 | 0.00 | 0.00 | 0.00 | 55 | 1012.8 |
| 20260904191729 | 37 | 172 | 11.3 | 19.3 | 0.00 | 0.00 | 0.00 | 54 | 1012.7 |
| 20260904191532 | 36 | 157 | 9.7 | 17.7 | 0.00 | 0.00 | 0.00 | 54 | 1009.7 |
| 20260904191241 | 36 | 186 | 8.0 | 17.7 | 0.00 | 0.00 | 0.00 | 53 | 1012.9 |
| 20260904190810 | 36 | 201 | 11.3 | 17.7 | 0.00 | 0.00 | 0.00 | 57 | 1012.9 |
| 20260904190232 | 36 | 165 | 11.3 | 16.1 | 0.00 | 0.00 | 0.00 | 57 | 1013.0 |
| 20260904190005 | 36 | 158 | 8.0 | 16.1 | 0.00 | 0.00 | 0.00 | 54 | 1009.9 |
| 20260904185743 | 36 | 198 | 8.0 | 16.1 | 0.00 | 0.00 | 0.00 | 55 | 1013.0 |
| 20260904185249 | 36 | 195 | 11.3 | 16.1 | 0.00 | 0.00 | 0.00 | 54 | 1013.1 |
| 20260904184740 | 36 | 199 | 11.3 | 16.1 | 0.00 | 0.00 | 0.00 | 55 | 1013.1 |
| 20260904184533 | 36 | 160 | 9.7 | 16.1 | 0.00 | 0.00 | 0.00 | 54 | 1010.0 |
| 20260904184252 | 36 | 223 | 11.3 | 16.1 | 0.00 | 0.00 | 0.00 | 57 | 1013.2 |
| 20260904183733 | 36 | 169 | 12.9 | 17.7 | 0.00 | 0.00 | 0.00 | 56 | 1013.1 |
| 20260904183306 | 36 | 214 | 9.7 | 16.1 | 0.00 | 0.00 | 0.00 | 56 | 1013.1 |
| 20260904183009 | 36 | 170 | 8.0 | 16.1 | 0.00 | 0.00 | 0.00 | 56 | 1010.0 |
| 20260904182726 | 36 | 211 | 11.3 | 16.1 | 0.00 | 0.00 | 0.00 | 57 | 1013.1 |
| 20260904182233 | 36 | 207 | 9.7 | 16.1 | 0.00 | 0.00 | 0.00 | 55 | 1013.2 |
| 20260904181745 | 36 | 211 | 12.9 | 16.1 | 0.00 | 0.00 | 0.00 | 56 | 1013.2 |
| 20260904181515 | 36 | 224 | 8.0 | 17.7 | 0.00 | 0.00 | 0.00 | 57 | 1010.2 |
| 20260904181228 | 36 | 180 | 9.7 | 14.5 | 0.00 | 0.00 | 0.00 | 57 | 1013.2 |
| 20260904180800 | 36 | 217 | 9.7 | 16.1 | 0.00 | 0.00 | 0.00 | 56 | 1013.2 |
| 20260904180222 | 35 | 220 | 6.4 | 16.1 | 0.00 | 0.00 | 0.00 | 56 | 1013.3 |
| 20260904180054 | 35 | 242 | 6.4 | 16.1 | 0.00 | 0.00 | 0.00 | 55 | 1010.2 |
| 20260904175733 | 36 | 209 | 11.3 | 16.1 | 0.00 | 0.00 | 0.00 | 55 | 1013.2 |
| 20260904175246 | 36 | 210 | 6.4 | 17.7 | 0.00 | 0.00 | 0.00 | 56 | 1013.3 |
| 20260904174728 | 36 | 206 | 11.3 | 16.1 | 0.00 | 0.00 | 0.00 | 57 | 1013.3 |
| 20260904174607 | 35 | 228 | 4.8 | 14.5 | 0.00 | 0.00 | 0.00 | 58 | 1010.2 |
| 20260904174501 | 35 | 227 | 4.8 | 14.5 | 0.00 | 0.00 | 0.00 | 57 | 1010.3 |
| 20260904174256 | 35 | 204 | 6.4 | 14.5 | 0.00 | 0.00 | 0.00 | 56 | 1013.3 |
| 20260904173745 | 35 | 208 | 9.7 | 16.1 | 0.00 | 0.00 | 0.00 | 56 | 1013.3 |
| 20260904173234 | 35 | 205 | 9.7 | 16.1 | 0.00 | 0.00 | 0.00 | 58 | 1013.3 |
| 20260904173025 | 35 | 199 | 3.2 | 16.1 | 0.00 | 0.00 | 0.00 | 60 | 1010.3 |
| 20260904172744 | 35 | 177 | 8.0 | 16.1 | 0.00 | 0.00 | 0.00 | 58 | 1013.3 |
| 20260904172226 | 35 | 199 | 9.7 | 16.1 | 0.00 | 0.00 | 0.00 | 58 | 1013.3 |
| 20260904171738 | 34 | 194 | 12.9 | 16.1 | 0.00 | 0.00 | 0.00 | 61 | 1013.3 |
| 20260904171529 | 33 | 212 | 4.8 | 16.1 | 0.00 | 0.00 | 0.00 | 62 | 1010.3 |
| 20260904171246 | 33 | 146 | 8.0 | 16.1 | 0.00 | 0.00 | 0.00 | 61 | 1013.3 |
| 20260904170729 | 33 | 164 | 11.3 | 16.1 | 0.00 | 0.00 | 0.00 | 60 | 1013.3 |
| 20260904170240 | 33 | 164 | 8.0 | 16.1 | 0.00 | 0.00 | 0.00 | 62 | 1013.3 |
| 20260904170027 | 33 | 153 | 8.0 | 16.1 | 0.00 | 0.00 | 0.00 | 62 | 1010.3 |
| 20260904165723 | 33 | 158 | 6.4 | 16.1 | 0.00 | 0.00 | 0.00 | 60 | 1013.3 |
| 20260904165236 | 33 | 220 | 8.0 | 19.3 | 0.00 | 0.00 | 0.00 | 61 | 1013.3 |
| 20260904164747 | 33 | 143 | 8.0 | 17.7 | 0.00 | 0.00 | 0.00 | 62 | 1013.3 |
| 20260904164530 | 33 | 219 | 4.8 | 17.7 | 0.00 | 0.00 | 0.00 | 63 | 1010.3 |
| 20260904164231 | 33 | 234 | 12.9 | 17.7 | 0.00 | 0.00 | 0.00 | 62 | 1013.3 |
| 20260904163740 | 33 | 211 | 9.7 | 19.3 | 0.00 | 0.00 | 0.00 | 64 | 1013.2 |
| 20260904163223 | 33 | 200 | 8.0 | 16.1 | 0.00 | 0.00 | 0.00 | 64 | 1013.2 |
| 20260904163031 | 32 | 192 | 6.4 | 17.7 | 0.00 | 0.00 | 0.00 | 63 | 1010.2 |
| 20260904162750 | 33 | 207 | 11.3 | 17.7 | 0.00 | 0.00 | 0.00 | 62 | 1013.3 |
| 20260904162234 | 33 | 226 | 9.7 | 17.7 | 0.00 | 0.00 | 0.00 | 61 | 1013.2 |
| 20260904161744 | 33 | 209 | 11.3 | 19.3 | 0.00 | 0.00 | 0.00 | 61 | 1013.3 |
| 20260904161511 | 33 | 221 | 9.7 | 16.1 | 0.00 | 0.00 | 0.00 | 61 | 1010.3 |
| 20260904161227 | 33 | 225 | 11.3 | 16.1 | 0.00 | 0.00 | 0.00 | 63 | 1013.3 |
| 20260904160735 | 33 | 202 | 9.7 | 16.1 | 0.00 | 0.00 | 0.00 | 64 | 1013.3 |
| 20260904160307 | 32 | 173 | 8.0 | 16.1 | 0.00 | 0.00 | 0.00 | 65 | 1013.3 |
| 20260904160049 | 32 | 200 | 6.4 | 14.5 | 0.00 | 0.00 | 0.00 | 64 | 1010.3 |
| 20260904155725 | 32 | 172 | 9.7 | 16.1 | 0.00 | 0.00 | 0.00 | 64 | 1013.3 |
| 20260904155237 | 32 | 199 | 12.9 | 16.1 | 0.00 | 0.00 | 0.00 | 66 | 1013.3 |
| 20260904154747 | 32 | 179 | 11.3 | 16.1 | 0.00 | 0.00 | 0.00 | 65 | 1013.4 |
| 20260904154533 | 31 | 174 | 11.3 | 16.1 | 0.00 | 0.00 | 0.00 | 65 | 1010.4 |
| 20260904154238 | 31 | 182 | 9.7 | 19.3 | 0.00 | 0.00 | 0.00 | 65 | 1013.3 |
| 20260904153806 | 31 | 184 | 11.3 | 19.3 | 0.00 | 0.00 | 0.00 | 66 | 1013.2 |
| 20260904153228 | 31 | 173 | 11.3 | 17.7 | 0.00 | 0.00 | 0.00 | 68 | 1013.4 |
| 20260904153006 | 31 | 186 | 11.3 | 17.7 | 0.00 | 0.00 | 0.00 | 68 | 1010.4 |
| 20260904152739 | 31 | 198 | 12.9 | 19.3 | 0.00 | 0.00 | 0.00 | 69 | 1013.2 |
| 20260904152308 | 31 | 199 | 11.3 | 17.7 | 0.00 | 0.00 | 0.00 | 68 | 1013.2 |
| 20260904151732 | 30 | 224 | 9.7 | 16.1 | 0.00 | 0.00 | 0.00 | 69 | 1013.2 |
| 20260904151548 | 30 | 176 | 8.0 | 16.1 | 0.00 | 0.00 | 0.00 | 68 | 1010.3 |
| 20260904151245 | 30 | 213 | 9.7 | 16.1 | 0.00 | 0.00 | 0.00 | 67 | 1013.2 |
| 20260904150727 | 30 | 213 | 12.9 | 19.3 | 0.00 | 0.00 | 0.00 | 67 | 1013.2 |
| 20260904150239 | 31 | 221 | 9.7 | 19.3 | 0.00 | 0.00 | 0.00 | 66 | 1013.3 |
| 20260904150049 | 30 | 210 | 9.7 | 17.7 | 0.00 | 0.00 | 0.00 | 66 | 1010.3 |
| 20260904145722 | 31 | 155 | 9.7 | 17.7 | 0.00 | 0.00 | 0.00 | 68 | 1013.3 |
| 20260904145234 | 31 | 199 | 11.3 | 17.7 | 0.00 | 0.00 | 0.00 | 70 | 1013.3 |
| 20260904144742 | 30 | 159 | 9.7 | 16.1 | 0.00 | 0.00 | 0.00 | 69 | 1013.3 |
| 20260904144550 | 30 | 188 | 8.0 | 16.1 | 0.00 | 0.00 | 0.00 | 69 | 1010.3 |
| 20260904144225 | 30 | 171 | 9.7 | 16.1 | 0.00 | 0.00 | 0.00 | 70 | 1013.4 |
| 20260904143754 | 30 | 184 | 11.3 | 19.3 | 0.00 | 0.00 | 0.00 | 70 | 1013.4 |
| 20260904143244 | 30 | 179 | 9.7 | 17.7 | 0.00 | 0.00 | 0.00 | 71 | 1013.3 |
| 20260904143010 | 29 | 200 | 9.7 | 17.7 | 0.00 | 0.00 | 0.00 | 70 | 1010.5 |
| 20260904142754 | 29 | 153 | 11.3 | 17.7 | 0.00 | 0.00 | 0.00 | 70 | 1013.3 |
| 20260904142244 | 29 | 197 | 9.7 | 16.1 | 0.00 | 0.00 | 0.00 | 72 | 1013.4 |
| 20260904141727 | 29 | 161 | 9.7 | 14.5 | 0.00 | 0.00 | 0.00 | 73 | 1013.4 |
| 20260904141549 | 28 | 183 | 6.4 | 14.5 | 0.00 | 0.00 | 0.00 | 73 | 1010.5 |
| 20260904141235 | 28 | 202 | 6.4 | 14.5 | 0.00 | 0.00 | 0.00 | 73 | 1013.4 |
| 20260904140745 | 28 | 158 | 9.7 | 14.5 | 0.00 | 0.00 | 0.00 | 73 | 1013.3 |
| 20260904140235 | 28 | 161 | 8.0 | 14.5 | 0.00 | 0.00 | 0.00 | 74 | 1013.3 |
| 20260904140022 | 27 | 184 | 8.0 | 16.1 | 0.00 | 0.00 | 0.00 | 74 | 1010.5 |
| 20260904135748 | 28 | 180 | 11.3 | 16.1 | 0.00 | 0.00 | 0.00 | 75 | 1013.3 |
| 20260904135231 | 27 | 203 | 11.3 | 14.5 | 0.00 | 0.00 | 0.00 | 76 | 1013.2 |
| 20260904134804 | 27 | 170 | 11.3 | 14.5 | 0.00 | 0.00 | 0.00 | 77 | 1013.2 |
| 20260904134554 | 27 | 192 | 8.0 | 14.5 | 0.00 | 0.00 | 0.00 | 77 | 1010.3 |
| 20260904134228 | 27 | 171 | 11.3 | 17.7 | 0.00 | 0.00 | 0.00 | 78 | 1013.1 |
| 20260904133734 | 26 | 178 | 9.7 | 17.7 | 0.00 | 0.00 | 0.00 | 78 | 1013.0 |
| 20260904133245 | 26 | 171 | 11.3 | 16.1 | 0.00 | 0.00 | 0.00 | 78 | 1013.0 |
| 20260904133058 | 26 | 175 | 11.3 | 16.1 | 0.00 | 0.00 | 0.00 | 78 | 1010.2 |
| 20260904133001 | 26 | 181 | 9.7 | 17.7 | 0.00 | 0.00 | 0.00 | 78 | 1010.1 |
| 20260904132728 | 26 | 186 | 11.3 | 16.1 | 0.00 | 0.00 | 0.00 | 79 | 1013.0 |
| 20260904132300 | 26 | 165 | 11.3 | 16.1 | 0.00 | 0.00 | 0.00 | 80 | 1013.0 |
| 20260904131723 | 26 | 159 | 11.3 | 17.7 | 0.00 | 0.00 | 0.00 | 81 | 1012.9 |
| 20260904131557 | 25 | 150 | 9.7 | 17.7 | 0.00 | 0.00 | 0.00 | 81 | 1010.1 |
| 20260904131256 | 25 | 160 | 9.7 | 17.7 | 0.00 | 0.00 | 0.00 | 81 | 1012.8 |
| 20260904130742 | 25 | 178 | 9.7 | 17.7 | 0.00 | 0.00 | 0.00 | 82 | 1012.8 |
| 20260904130228 | 25 | 181 | 9.7 | 17.7 | 0.00 | 0.00 | 0.00 | 82 | 1012.7 |
| 20260904130034 | 25 | 156 | 9.7 | 17.7 | 0.00 | 0.00 | 0.00 | 83 | 1009.9 |
| 20260904125739 | 25 | 155 | 11.3 | 16.1 | 0.00 | 0.00 | 0.00 | 83 | 1012.8 |
| 20260904125230 | 25 | 155 | 9.7 | 14.5 | 0.00 | 0.00 | 0.00 | 83 | 1012.7 |
| 20260904124742 | 25 | 159 | 9.7 | 14.5 | 0.00 | 0.00 | 0.00 | 83 | 1012.5 |
| 20260904124509 | 24 | 148 | 9.7 | 14.5 | 0.00 | 0.00 | 0.00 | 83 | 1009.7 |
| 20260904124225 | 25 | 155 | 9.7 | 12.9 | 0.00 | 0.00 | 0.00 | 82 | 1012.6 |
| 20260904123754 | 24 | 160 | 9.7 | 12.9 | 0.00 | 0.00 | 0.00 | 82 | 1012.6 |
| 20260904123241 | 24 | 168 | 8.0 | 9.7 | 0.00 | 0.00 | 0.00 | 82 | 1012.6 |
| 20260904123018 | 24 | 175 | 6.4 | 9.7 | 0.00 | 0.00 | 0.00 | 82 | 1009.7 |
| 20260904122722 | 24 | 160 | 8.0 | 11.3 | 0.00 | 0.00 | 0.00 | 82 | 1012.5 |
| 20260904122254 | 24 | 156 | 6.4 | 11.3 | 0.00 | 0.00 | 0.00 | 81 | 1012.4 |
| 20260904121745 | 24 | 153 | 6.4 | 8.0 | 0.00 | 0.00 | 0.00 | 81 | 1012.4 |
| 20260904121543 | 24 | 152 | 6.4 | 9.7 | 0.00 | 0.00 | 0.00 | 81 | 1009.5 |
| 20260904121258 | 25 | 165 | 6.4 | 8.0 | 0.00 | 0.00 | 0.00 | 81 | 1012.4 |
| 20260904120746 | 25 | 165 | 4.8 | 8.0 | 0.00 | 0.00 | 0.00 | 80 | 1012.4 |
| 20260904120226 | 25 | 165 | 4.8 | 8.0 | 0.00 | 0.00 | 0.00 | 80 | 1012.3 |
| 20260904120021 | 24 | 165 | 3.2 | 8.0 | 0.00 | 0.00 | 0.00 | 80 | 1009.5 |
| 20260904115737 | 25 | 159 | 6.4 | 8.0 | 0.00 | 0.00 | 0.00 | 80 | 1012.3 |
| 20260904115249 | 25 | 194 | 4.8 | 6.4 | 0.00 | 0.00 | 0.00 | 79 | 1012.2 |
| 20260904114729 | 25 | 194 | 4.8 | 6.4 | 0.00 | 0.00 | 0.00 | 79 | 1012.1 |
| 20260904114524 | 25 | 194 | 3.2 | 6.4 | 0.00 | 0.00 | 0.00 | 79 | 1009.2 |
| 20260904114243 | 25 | 194 | 4.8 | 6.4 | 0.00 | 0.00 | 0.00 | 79 | 1012.1 |
| 20260904113726 | 25 | 194 | 4.8 | 8.0 | 0.00 | 0.00 | 0.00 | 79 | 1012.1 |
| 20260904113239 | 25 | 194 | 4.8 | 8.0 | 0.00 | 0.00 | 0.00 | 79 | 1012.0 |
| 20260904113025 | 25 | 194 | 4.8 | 8.0 | 0.00 | 0.00 | 0.00 | 79 | 1009.1 |
| 20260904112721 | 25 | 169 | 6.4 | 9.7 | 0.00 | 0.00 | 0.00 | 79 | 1012.0 |
| 20260904112230 | 25 | 167 | 6.4 | 9.7 | 0.00 | 0.00 | 0.00 | 79 | 1012.0 |
| 20260904111800 | 25 | 175 | 8.0 | 9.7 | 0.00 | 0.00 | 0.00 | 78 | 1012.0 |
| 20260904111556 | 25 | 170 | 4.8 | 8.0 | 0.00 | 0.00 | 0.00 | 78 | 1009.1 |
| 20260904111234 | 25 | 178 | 6.4 | 8.0 | 0.00 | 0.00 | 0.00 | 78 | 1011.9 |
| 20260904110805 | 25 | 165 | 6.4 | 9.7 | 0.00 | 0.03 | 0.00 | 78 | 1011.9 |
| 20260904110228 | 25 | 193 | 8.0 | 11.3 | 0.00 | 0.03 | 0.00 | 78 | 1011.9 |
| 20260904110024 | 25 | 180 | 6.4 | 9.7 | 0.00 | 0.03 | 0.00 | 77 | 1009.1 |
| 20260904105800 | 25 | 176 | 6.4 | 12.9 | 0.00 | 0.03 | 0.00 | 77 | 1012.0 |
| 20260904105248 | 25 | 201 | 6.4 | 12.9 | 0.00 | 0.03 | 0.00 | 77 | 1011.9 |
| 20260904104738 | 25 | 164 | 6.4 | 11.3 | 0.00 | 0.03 | 0.00 | 77 | 1011.9 |
| 20260904104524 | 25 | 173 | 6.4 | 11.3 | 0.00 | 0.03 | 0.00 | 77 | 1009.0 |
| 20260904104222 | 26 | 200 | 6.4 | 12.9 | 0.00 | 0.03 | 0.00 | 77 | 1011.9 |
| 20260904103732 | 26 | 200 | 6.4 | 12.9 | 0.00 | 0.03 | 0.00 | 77 | 1011.9 |
| 20260904103245 | 26 | 200 | 6.4 | 12.9 | 0.00 | 0.03 | 0.00 | 77 | 1011.9 |
| 20260904103033 | 25 | 200 | 6.4 | 12.9 | 0.00 | 0.03 | 0.00 | 77 | 1009.1 |
| 20260904102726 | 26 | 198 | 8.0 | 14.5 | 0.00 | 0.03 | 0.00 | 77 | 1011.9 |
| 20260904102238 | 26 | 191 | 8.0 | 14.5 | 0.00 | 0.03 | 0.00 | 77 | 1011.9 |
| 20260904101746 | 26 | 188 | 9.7 | 14.5 | 0.00 | 0.03 | 0.00 | 76 | 1011.8 |
| 20260904101529 | 26 | 196 | 9.7 | 14.5 | 0.00 | 0.03 | 0.00 | 76 | 1009.0 |
| 20260904101230 | 26 | 193 | 9.7 | 16.1 | 0.00 | 0.03 | 0.00 | 76 | 1011.8 |
| 20260904100739 | 26 | 206 | 8.0 | 16.1 | 0.00 | 0.03 | 0.00 | 76 | 1011.8 |
| 20260904100225 | 26 | 181 | 9.7 | 17.7 | 0.00 | 0.03 | 0.00 | 76 | 1011.8 |
| 20260904100026 | 26 | 205 | 8.0 | 17.7 | 0.00 | 0.03 | 0.00 | 76 | 1008.9 |
| 20260904095756 | 26 | 185 | 11.3 | 17.7 | 0.00 | 0.03 | 0.00 | 75 | 1011.7 |
| 20260904095247 | 26 | 184 | 11.3 | 20.9 | 0.00 | 0.03 | 0.00 | 75 | 1011.8 |
| 20260904094731 | 26 | 219 | 12.9 | 20.9 | 0.00 | 0.03 | 0.00 | 75 | 1011.7 |
| 20260904094509 | 26 | 189 | 12.9 | 25.7 | 0.00 | 0.03 | 0.00 | 75 | 1008.8 |
| 20260904094300 | 26 | 182 | 12.9 | 25.7 | 0.00 | 0.03 | 0.00 | 75 | 1011.7 |